When you browse on this site, cookies collect data to enhance your experience and personalize the content and advertising you see.
Visit our Privacy Policy to learn more. By continuing to use the site, you agree to this use of cookies and data.
  • In Latvia
  • List of Countries
  • For 7 days
  • Water Temperature
  • Satellite Maps
  • Weather Map
  • Weather Widgets
  • user-avatar
    Login

    Hourly Weather Canberra

    Today, 19 July, Friday

    Time Temperature Precipitation Wind Pressure Humidity
    00:00 +1°C° 0 mm 3 mps 709 mmHg 93%
    01:00 +1°C° 0 mm 3 mps 709 mmHg 92%
    02:00 +1°C° 0 mm 3 mps 709 mmHg 93%
    03:00 +1°C° 0 mm 3 mps 709 mmHg 94%
    04:00 +1°C° 0 mm 3 mps 709 mmHg 97%
    05:00 +1°C° 0 mm 3 mps 709 mmHg 97%
    06:00 +1°C° 0 mm 3 mps 710 mmHg 97%
    07:00 +1°C° 0 mm 3 mps 710 mmHg 97%
    08:00 +3°C° 0 mm 3 mps 710 mmHg 91%
    09:00 +5°C° 0 mm 3 mps 711 mmHg 86%
    10:00 +8°C° 0 mm 3 mps 711 mmHg 78%
    11:00 +9°C° 0 mm 3 mps 711 mmHg 72%
    12:00 +11°C° 0 mm 3 mps 711 mmHg 67%
    13:00 +12°C° 0 mm 3 mps 711 mmHg 61%
    14:00 +12°C° 0 mm 3 mps 711 mmHg 64%
    15:00 +11°C° 0 mm 3 mps 711 mmHg 67%
    16:00 +11°C° 0 mm 3 mps 711 mmHg 72%
    17:00 +9°C° 0 mm 3 mps 712 mmHg 79%
    18:00 +7°C° 0 mm 2 mps 712 mmHg 87%
    19:00 +6°C° 0 mm 1 mps 712 mmHg 95%
    20:00 +5°C° 0 mm 1 mps 712 mmHg 94%
    21:00 +4°C° 0 mm 1 mps 713 mmHg 94%
    22:00 +3°C° 0 mm 0 mps 713 mmHg 94%
    23:00 +2°C° 0 mm 0 mps 713 mmHg 94%

    Tomorrow, 20 July, Saturday

    Time Temperature Precipitation Wind Pressure Humidity
    00:00 +2°C° 0 mm 0 mps 713 mmHg 93%
    01:00 +1°C° 0 mm 0 mps 713 mmHg 92%
    02:00 +1°C° 0 mm 0 mps 713 mmHg 92%
    03:00 +1°C° 0 mm 0 mps 712 mmHg 92%
    04:00 +1°C° 0 mm 0 mps 712 mmHg 92%
    05:00 +1°C° 0 mm 0 mps 712 mmHg 91%
    06:00 +1°C° 0 mm 0 mps 712 mmHg 91%
    07:00 +1°C° 0 mm 0 mps 712 mmHg 91%
    08:00 +3°C° 0 mm 1 mps 712 mmHg 85%
    09:00 +5°C° 0 mm 1 mps 712 mmHg 79%
    10:00 +7°C° 0 mm 1 mps 712 mmHg 73%
    11:00 +8°C° 0 mm 2 mps 712 mmHg 67%
    12:00 +10°C° 0 mm 2 mps 711 mmHg 60%
    13:00 +12°C° 0 mm 3 mps 710 mmHg 54%
    14:00 +12°C° 0 mm 3 mps 710 mmHg 58%
    15:00 +11°C° 0 mm 3 mps 710 mmHg 61%
    16:00 +11°C° 0 mm 4 mps 710 mmHg 65%
    17:00 +9°C° 0 mm 3 mps 710 mmHg 74%
    18:00 +7°C° 0 mm 2 mps 710 mmHg 82%
    19:00 +5°C° 0 mm 2 mps 710 mmHg 91%
    20:00 +4°C° 0 mm 2 mps 710 mmHg 91%
    21:00 +4°C° 0 mm 2 mps 710 mmHg 92%
    22:00 +4°C° 0 mm 2 mps 710 mmHg 93%
    23:00 +3°C° 0 mm 2 mps 710 mmHg 93%

    Day after tomorrow, 21 July, Sunday

    Time Temperature Precipitation Wind Pressure Humidity
    00:00 +3°C° 0 mm 2 mps 709 mmHg 93%
    01:00 +3°C° 0 mm 2 mps 709 mmHg 93%
    02:00 +3°C° 0 mm 2 mps 709 mmHg 93%
    03:00 +3°C° 0 mm 2 mps 708 mmHg 93%
    04:00 +3°C° 0 mm 2 mps 708 mmHg 92%
    05:00 +3°C° 0 mm 2 mps 708 mmHg 93%
    06:00 +2°C° 0 mm 2 mps 708 mmHg 94%
    07:00 +2°C° 0 mm 2 mps 708 mmHg 94%
    08:00 +4°C° 0 mm 3 mps 708 mmHg 85%
    09:00 +6°C° 0 mm 4 mps 708 mmHg 76%
    10:00 +8°C° 0 mm 5 mps 708 mmHg 67%
    11:00 +10°C° 0 mm 6 mps 708 mmHg 62%
    12:00 +11°C° 0 mm 6 mps 707 mmHg 56%
    13:00 +13°C° 0 mm 6 mps 707 mmHg 51%
    14:00 +13°C° 0 mm 6 mps 707 mmHg 54%
    15:00 +12°C° 0 mm 5 mps 706 mmHg 57%
    16:00 +12°C° 0 mm 5 mps 706 mmHg 60%
    17:00 +10°C° 0 mm 4 mps 707 mmHg 69%
    18:00 +8°C° 0 mm 3 mps 707 mmHg 77%
    19:00 +7°C° 0 mm 2 mps 707 mmHg 86%
    20:00 +6°C° 0 mm 2 mps 708 mmHg 87%
    21:00 +6°C° 0 mm 2 mps 708 mmHg 88%
    22:00 +6°C° 0 mm 2 mps 708 mmHg 89%
    23:00 +6°C° 0 mm 1 mps 708 mmHg 90%

    22 July, Monday

    Time Temperature Precipitation Wind Pressure Humidity
    00:00 +6°C° 0 mm 1 mps 708 mmHg 90%
    01:00 +5°C° 0 mm 1 mps 708 mmHg 90%
    02:00 +4°C° 0 mm 0 mps 708 mmHg 91%
    03:00 +3°C° 0 mm 0 mps 708 mmHg 92%
    04:00 +3°C° 0 mm 0 mps 708 mmHg 92%
    05:00 +3°C° 0 mm 0 mps 708 mmHg 93%
    06:00 +2°C° 0 mm 0 mps 708 mmHg 93%
    07:00 +2°C° 0 mm 0 mps 709 mmHg 93%
    08:00 +5°C° 0 mm 1 mps 709 mmHg 85%
    09:00 +8°C° 0 mm 1 mps 709 mmHg 77%
    10:00 +10°C° 0 mm 1 mps 710 mmHg 69%
    11:00 +10°C° 0 mm 2 mps 709 mmHg 63%
    12:00 +12°C° 0 mm 3 mps 709 mmHg 56%
    13:00 +13°C° 0 mm 4 mps 708 mmHg 50%
    14:00 +13°C° 0 mm 4 mps 708 mmHg 52%
    15:00 +12°C° 0 mm 4 mps 708 mmHg 54%
    16:00 +12°C° 0 mm 4 mps 708 mmHg 57%
    17:00 +10°C° 0 mm 3 mps 708 mmHg 66%
    18:00 +8°C° 0 mm 3 mps 708 mmHg 76%
    19:00 +6°C° 0 mm 2 mps 708 mmHg 85%
    20:00 +6°C° 0 mm 2 mps 708 mmHg 86%
    21:00 +5°C° 0 mm 2 mps 708 mmHg 88%
    22:00 +6°C° 0 mm 1 mps 708 mmHg 89%
    23:00 +5°C° 0 mm 1 mps 708 mmHg 89%

    23 July, Tuesday

    Time Temperature Precipitation Wind Pressure Humidity
    00:00 +4°C° 0 mm 2 mps 708 mmHg 90%
    01:00 +4°C° 0 mm 2 mps 708 mmHg 90%
    02:00 +4°C° 0 mm 2 mps 708 mmHg 91%
    03:00 +3°C° 0 mm 2 mps 708 mmHg 91%
    04:00 +3°C° 0 mm 2 mps 708 mmHg 92%
    05:00 +3°C° 0 mm 2 mps 708 mmHg 92%
    06:00 +3°C° 0 mm 2 mps 708 mmHg 92%
    07:00 +3°C° 0 mm 2 mps 708 mmHg 92%
    08:00 +4°C° 0 mm 3 mps 709 mmHg 82%
    09:00 +6°C° 0 mm 4 mps 709 mmHg 73%
    10:00 +8°C° 0 mm 4 mps 709 mmHg 63%
    11:00 +9°C° 0 mm 5 mps 709 mmHg 59%
    12:00 +10°C° 0 mm 6 mps 709 mmHg 54%
    13:00 +12°C° 0 mm 7 mps 708 mmHg 50%
    14:00 +11°C° 0 mm 7 mps 708 mmHg 53%
    15:00 +11°C° 0 mm 7 mps 708 mmHg 56%
    16:00 +10°C° 0 mm 6 mps 708 mmHg 59%
    17:00 +9°C° 0 mm 6 mps 708 mmHg 63%
    18:00 +8°C° 0 mm 5 mps 708 mmHg 67%
    19:00 +7°C° 0 mm 5 mps 708 mmHg 70%
    20:00 +7°C° 0 mm 5 mps 708 mmHg 75%
    21:00 +7°C° 0 mm 4 mps 708 mmHg 80%
    22:00 +6°C° 0 mm 4 mps 709 mmHg 85%
    23:00 +6°C° 0 mm 4 mps 708 mmHg 88%

    24 July, Wednesday

    Time Temperature Precipitation Wind Pressure Humidity
    00:00 +5°C° 0 mm 4 mps 708 mmHg 90%
    01:00 +5°C° 0 mm 4 mps 707 mmHg 92%
    02:00 +5°C° 0.2 mm 5 mps 707 mmHg 92%
    03:00 +5°C° 0.2 mm 5 mps 706 mmHg 92%
    04:00 +5°C° 0.2 mm 6 mps 706 mmHg 91%
    05:00 +4°C° 1 mm 6 mps 706 mmHg 89%
    06:00 +3°C° 1 mm 6 mps 706 mmHg 86%
    07:00 +2°C° 1 mm 6 mps 706 mmHg 84%
    08:00 +2°C° 0 mm 6 mps 707 mmHg 81%
    09:00 +3°C° 0 mm 6 mps 708 mmHg 78%
    10:00 +3°C° 0 mm 6 mps 708 mmHg 75%
    11:00 +4°C° 0 mm 6 mps 709 mmHg 69%
    12:00 +7°C° 0 mm 5 mps 709 mmHg 64%
    13:00 +8°C° 0 mm 4 mps 709 mmHg 59%
    14:00 +7°C° 0 mm 4 mps 710 mmHg 60%
    15:00 +8°C° 0 mm 3 mps 710 mmHg 61%
    16:00 +8°C° 0 mm 3 mps 711 mmHg 62%
    17:00 +7°C° 0 mm 2 mps 711 mmHg 70%
    18:00 +6°C° 0 mm 1 mps 712 mmHg 77%
    19:00 +3°C° 0 mm 0 mps 713 mmHg 84%
    20:00 +4°C° 0 mm 1 mps 713 mmHg 86%
    21:00 +3°C° 0 mm 1 mps 713 mmHg 88%
    22:00 +2°C° 0 mm 1 mps 714 mmHg 90%
    23:00 +2°C° 0 mm 1 mps 714 mmHg 91%
    Show more